TimeCDT,TemperatureF,Dew PointF,Humidity,Sea Level PressureIn,VisibilityMPH,Wind Direction,Wind SpeedMPH,Gust SpeedMPH,PrecipitationIn,Events,Conditions,WindDirDegrees,DateUTC
12:54 AM,75.0,46.9,37,29.81,10.0,SSE,16.1,25.3,N/A,,Clear,150,2013-07-05 05:54:00
1:54 AM,73.0,48.0,41,29.81,10.0,SSE,16.1,25.3,N/A,,Clear,160,2013-07-05 06:54:00
2:54 AM,71.1,48.0,44,29.81,10.0,SSE,12.7,-,N/A,,Clear,160,2013-07-05 07:54:00
3:54 AM,70.0,48.9,47,29.80,10.0,SSE,11.5,-,N/A,,Clear,160,2013-07-05 08:54:00
4:54 AM,69.1,48.9,49,29.79,10.0,SSE,12.7,-,N/A,,Clear,150,2013-07-05 09:54:00
5:54 AM,68.0,48.9,50,29.79,10.0,SSE,10.4,-,N/A,,Clear,160,2013-07-05 10:54:00
6:54 AM,66.9,48.9,52,29.79,10.0,SSE,12.7,-,N/A,,Clear,150,2013-07-05 11:54:00
7:54 AM,70.0,48.0,46,29.78,10.0,South,11.5,-,N/A,,Clear,170,2013-07-05 12:54:00
8:54 AM,73.9,48.9,41,29.79,10.0,South,15.0,23.0,N/A,,Clear,180,2013-07-05 13:54:00
9:54 AM,78.1,50.0,37,29.78,10.0,South,18.4,-,N/A,,Clear,180,2013-07-05 14:54:00
10:54 AM,84.0,50.0,31,29.77,10.0,South,17.3,26.5,N/A,,Clear,180,2013-07-05 15:54:00
11:54 AM,91.0,48.9,23,29.74,10.0,South,25.3,33.4,N/A,,Clear,190,2013-07-05 16:54:00
12:54 PM,93.0,50.0,23,29.73,10.0,SSW,18.4,32.2,N/A,,Clear,210,2013-07-05 17:54:00
1:54 PM,93.9,51.1,23,29.72,10.0,South,24.2,32.2,N/A,,Clear,180,2013-07-05 18:54:00
2:54 PM,97.0,50.0,20,29.70,10.0,South,23.0,35.7,N/A,,Clear,190,2013-07-05 19:54:00
3:54 PM,98.1,48.0,18,29.69,10.0,South,25.3,38.0,N/A,,Clear,180,2013-07-05 20:54:00
4:54 PM,98.1,48.0,18,29.66,10.0,South,26.5,36.8,N/A,,Clear,180,2013-07-05 21:54:00
5:54 PM,95.0,48.0,20,29.65,10.0,South,18.4,-,N/A,,Clear,190,2013-07-05 22:54:00
6:54 PM,93.9,48.9,21,29.65,10.0,South,17.3,26.5,N/A,,Clear,170,2013-07-05 23:54:00
7:54 PM,91.0,48.0,23,29.67,10.0,South,18.4,28.8,N/A,,Clear,170,2013-07-06 00:54:00
8:54 PM,88.0,46.0,23,29.68,10.0,SSE,17.3,26.5,N/A,,Clear,160,2013-07-06 01:54:00
9:54 PM,84.9,46.9,27,29.68,10.0,SSE,15.0,25.3,N/A,,Clear,160,2013-07-06 02:54:00
10:54 PM,84.0,46.9,27,29.70,10.0,SSE,13.8,23.0,N/A,,Clear,160,2013-07-06 03:54:00
11:54 PM,82.9,46.9,28,29.71,10.0,South,16.1,23.0,N/A,,Partly Cloudy,170,2013-07-06 04:54:00